Showing default

DODECAPOLE 2, 1510

Orbit data source: Space-Track

DODECAPOLE 2, 1510 is a payload satellite owned by NRL (US) in LEO that was launched on Fri, 13 Aug 1965 UTC via a THOR ABLESTAR launch vehicle from the Air Force Western Test Range (AFWTR). Payload-class satellites include a variety of spacecraft equipped with specific instruments for various scientific and technological missions. These include communications satellites like Starlink; space stations such as the ISS; scientific satellites like the Hubble; Earth observation satellites from companies like Planet Labs, Umbra, and HawkEye 360; GPS; miniature CubeSats for education and research; and military/defense satellites.

Loading next visibility...
Identifier
1510, 1965-065C
Orbit
LEO
Country
Flag of USUS
Related business
Manufacturer
NRL
Mission
Spacecraft
Bus & Motor
NRL 9", Unknown motor
Mass
4 kg wet, 4 kg dry
Launch date (UTC)
1965-08-13 (61 years ago)
Launch vehicle
THOR ABLESTAR
Launch site
Air Force Western Test Range (AFWTR)
Object type
Payload
Rocket body
Debris
Shape & HBR
SPHERE + 12 ANT, 7.6 m
Radar Cross Section
Medium (>0.1 m² and <1 m²)

Expand to show TLE details & history
Last TLE update: 21 hours ago

TLE from 21 hours ago
0 DODECAPOLE 2
1 01510U 65065C   26207.47330465  .00003145  00000-0  17186-2 0  9996
2 01510  90.0665  25.2892 0040676  61.9234 298.6055 14.11408780 38708
Epoch: 2026-07-26T11:21Z
TLE epoch observation values (Epoch: 2026-07-26T11:21:33.521Z)
Latitude
-0.00001°
Longitude
-89.2712°
Altitude
843.602 km
Speed
7.438 km/s
True Right ascension
01h 41m 09s
True Declination
0° 00' 00"
Sunlit
Object was in daylight at epoch
Visualization orbit readout
Latitude
Unknown
Longitude
Unknown
Altitude
Unknown
Speed
Unknown
Apparent Right ascension
Unknown
Apparent Declination
Unknown
Sunlit
N/A
Visualization observer readout
Local Sidereal Time
21:52:21
Azimuth
Unknown
Elevation
Unknown
Doppler factor
Unknown
Orbital elements
Apogee altitude
880.923 km
Perigee altitude
822.108 km
Semi-major axis
7,229.653 km
Eccentricity
0.00407
Inclination
90.0665°
RAAN
25.2892°
Arg. of periapsis
61.9234°
True anomaly
298.19529°
Mean anomaly
298.6055°
Eccentric anomaly
298.40049°
Mean motion
3.53075 °/min
Orbital period
101.96 mins
BSTAR
0.0017186
Loading maneuver chart data...
Computing Atmospheric mass density...
Loading historical data...
Loading historical data...
Loading historical data...
Loading historical data...
Loading historical data...
Loading historical data...
Loading historical data...

Documentation

Showing up to 5 results
|